| time (UTC) | temp F | wind direction | speed knots | gust knots | rain 1hr in | rain 24hr in | rain mn in | humidity % | barometer mb |
| 20260905204543 | 96 | 344 | 0.0 | 4.3 | 0.00 | 0.00 | 0.00 | 53 | 1009.7 |
| 20260905203039 | 96 | 9 | 0.0 | 2.6 | 0.00 | 0.00 | 0.00 | 53 | 1010.1 |
| 20260905201537 | 96 | 345 | 0.0 | 1.7 | 0.00 | 0.00 | 0.00 | 53 | 1010.2 |
| 20260905200037 | 96 | 351 | 0.0 | 3.5 | 0.00 | 0.00 | 0.00 | 52 | 1010.4 |
| 20260905194530 | 95 | 70 | 0.0 | 1.7 | 0.00 | 0.00 | 0.00 | 52 | 1010.5 |
| 20260905193027 | 95 | 351 | 0.0 | 4.3 | 0.00 | 0.00 | 0.00 | 52 | 1010.8 |
| 20260905191527 | 95 | 46 | 0.0 | 0.0 | 0.00 | 0.00 | 0.00 | 53 | 1010.9 |
| 20260905190029 | 95 | 342 | 0.0 | 3.5 | 0.00 | 0.00 | 0.00 | 53 | 1011.2 |
| 20260905184520 | 95 | 129 | 0.0 | 2.6 | 0.00 | 0.00 | 0.00 | 54 | 1011.4 |
| 20260905183019 | 95 | 119 | 0.0 | 2.6 | 0.00 | 0.00 | 0.00 | 54 | 1011.7 |
| 20260905181517 | 94 | 102 | 0.0 | 2.6 | 0.00 | 0.00 | 0.00 | 54 | 1011.8 |
| 20260905180018 | 94 | 237 | 0.0 | 0.9 | 0.00 | 0.00 | 0.00 | 52 | 1011.9 |
| 20260905174513 | 93 | 319 | 0.0 | 0.9 | 0.00 | 0.00 | 0.00 | 54 | 1012.0 |
| 20260905173008 | 92 | 94 | 1.7 | 4.3 | 0.00 | 0.00 | 0.00 | 55 | 1012.1 |
| 20260905171504 | 91 | 102 | 0.0 | 5.2 | 0.00 | 0.00 | 0.00 | 58 | 1012.3 |
| 20260905170004 | 90 | 130 | 0.0 | 5.2 | 0.00 | 0.00 | 0.00 | 59 | 1012.5 |
| 20260905164606 | 90 | 119 | 0.0 | 7.8 | 0.00 | 0.00 | 0.00 | 60 | 1012.9 |
| 20260905163056 | 89 | 103 | 0.9 | 1.7 | 0.00 | 0.00 | 0.00 | 62 | 1013.2 |
| 20260905161551 | 88 | 138 | 0.0 | 5.2 | 0.00 | 0.00 | 0.00 | 64 | 1013.2 |
| 20260905160055 | 87 | 113 | 0.9 | 5.2 | 0.00 | 0.00 | 0.00 | 65 | 1013.2 |
| 20260905154550 | 86 | 136 | 0.9 | 7.0 | 0.00 | 0.00 | 0.00 | 67 | 1013.3 |
| 20260905153043 | 87 | 153 | 0.9 | 4.3 | 0.00 | 0.00 | 0.00 | 65 | 1013.3 |
| 20260905151539 | 85 | 151 | 0.0 | 4.3 | 0.00 | 0.00 | 0.00 | 68 | 1013.4 |
| 20260905150035 | 83 | 113 | 0.0 | 3.5 | 0.00 | 0.00 | 0.00 | 72 | 1013.5 |
| 20260905144531 | 82 | 136 | 0.0 | 3.5 | 0.00 | 0.00 | 0.00 | 76 | 1013.7 |
| 20260905143029 | 81 | 283 | 0.0 | 6.1 | 0.00 | 0.00 | 0.00 | 79 | 1013.7 |
| 20260905141525 | 80 | 158 | 0.0 | 4.3 | 0.00 | 0.00 | 0.00 | 82 | 1013.9 |
| 20260905140022 | 78 | 177 | 0.0 | 4.3 | 0.00 | 0.00 | 0.00 | 87 | 1013.9 |
| 20260905134517 | 77 | 137 | 0.0 | 0.0 | 0.00 | 0.00 | 0.00 | 88 | 1014.2 |
| 20260905133023 | 77 | 136 | 0.0 | 5.2 | 0.00 | 0.00 | 0.00 | 87 | 1014.3 |
| 20260905131515 | 79 | 7 | 0.0 | 1.7 | 0.00 | 0.00 | 0.00 | 85 | 1014.5 |
| 20260905130013 | 79 | 7 | 0.0 | 2.6 | 0.00 | 0.00 | 0.00 | 84 | 1014.6 |
| 20260905124511 | 79 | 127 | 0.0 | 0.0 | 0.00 | 0.00 | 0.00 | 86 | 1013.5 |
| 20260905123009 | 78 | 128 | 0.0 | 0.9 | 0.00 | 0.00 | 0.00 | 88 | 1013.4 |
| 20260905121506 | 78 | 356 | 0.0 | 0.0 | 0.00 | 0.00 | 0.00 | 91 | 1013.1 |
| 20260905120007 | 78 | 356 | 0.0 | 0.0 | 0.00 | 0.00 | 0.00 | 91 | 1013.4 |
| 20260905114610 | 78 | 356 | 0.0 | 0.0 | 0.00 | 0.00 | 0.00 | 92 | 1013.0 |
| 20260905113100 | 77 | 346 | 0.0 | 0.0 | 0.00 | 0.00 | 0.00 | 92 | 1012.9 |
| 20260905111651 | 77 | 346 | 0.0 | 1.7 | 0.00 | 0.00 | 0.00 | 93 | 1012.6 |
| 20260905110056 | 77 | 351 | 0.0 | 0.0 | 0.00 | 0.00 | 0.00 | 93 | 1012.1 |
| 20260905104555 | 78 | 351 | 0.0 | 0.0 | 0.00 | 0.00 | 0.00 | 92 | 1011.8 |
| 20260905103101 | 78 | 351 | 0.0 | 0.0 | 0.00 | 0.00 | 0.00 | 92 | 1011.7 |
| 20260905101552 | 78 | 351 | 0.0 | 0.0 | 0.00 | 0.00 | 0.00 | 92 | 1011.9 |
| 20260905100057 | 78 | 351 | 0.0 | 0.0 | 0.00 | 0.00 | 0.00 | 91 | 1011.9 |
| 20260905094550 | 78 | 351 | 0.0 | 0.0 | 0.00 | 0.00 | 0.00 | 91 | 1011.9 |
| 20260905093103 | 78 | 351 | 0.0 | 0.0 | 0.00 | 0.00 | 0.00 | 90 | 1011.7 |
| 20260905091548 | 79 | 351 | 0.0 | 0.0 | 0.00 | 0.00 | 0.00 | 90 | 1011.6 |
| 20260905090045 | 79 | 351 | 0.0 | 0.0 | 0.00 | 0.00 | 0.00 | 89 | 1011.6 |
| 20260905084543 | 79 | 351 | 0.0 | 0.0 | 0.00 | 0.00 | 0.00 | 88 | 1011.4 |
| 20260905083042 | 79 | 351 | 0.0 | 0.0 | 0.00 | 0.00 | 0.00 | 88 | 1011.3 |
| 20260905081540 | 80 | 351 | 0.0 | 0.0 | 0.00 | 0.00 | 0.00 | 88 | 1011.3 |
| 20260905080040 | 80 | 351 | 0.0 | 0.0 | 0.00 | 0.00 | 0.00 | 88 | 1011.3 |
| 20260905074540 | 80 | 351 | 0.9 | 2.6 | 0.00 | 0.00 | 0.00 | 88 | 1011.5 |
| 20260905073039 | 79 | 351 | 0.0 | 0.0 | 0.00 | 0.00 | 0.00 | 87 | 1011.3 |
| 20260905071538 | 79 | 351 | 0.0 | 0.0 | 0.00 | 0.00 | 0.00 | 86 | 1011.5 |
| 20260905070047 | 79 | 351 | 0.0 | 0.0 | 0.00 | 0.00 | 0.00 | 86 | 1011.6 |
| 20260905064545 | 79 | 351 | 0.0 | 0.0 | 0.00 | 0.00 | 0.00 | 86 | 1011.8 |
| 20260905063030 | 80 | 351 | 0.0 | 0.0 | 0.00 | 0.00 | 0.00 | 86 | 1012.1 |
| 20260905061528 | 80 | 351 | 0.0 | 0.0 | 0.00 | 0.00 | 0.00 | 87 | 1012.3 |
| 20260905060027 | 80 | 351 | 0.0 | 0.0 | 0.00 | 0.00 | 0.00 | 86 | 1012.5 |
| 20260905054534 | 80 | 351 | 0.0 | 0.0 | 0.00 | 0.00 | 0.00 | 86 | 1012.5 |
| 20260905053025 | 81 | 351 | 0.0 | 0.0 | 0.00 | 0.00 | 0.00 | 86 | 1012.4 |
| 20260905051533 | 81 | 351 | 0.0 | 0.0 | 0.00 | 0.00 | 0.00 | 85 | 1012.5 |
| 20260905050019 | 81 | 351 | 0.0 | 0.0 | 0.00 | 0.00 | 0.00 | 84 | 1012.5 |
| 20260905044518 | 81 | 351 | 0.0 | 0.0 | 0.00 | 0.00 | 0.00 | 83 | 1012.6 |
| 20260905043016 | 82 | 351 | 0.0 | 0.0 | 0.00 | 0.00 | 0.00 | 83 | 1012.6 |
| 20260905041514 | 82 | 351 | 0.0 | 0.0 | 0.00 | 0.00 | 0.00 | 81 | 1012.5 |
| 20260905040021 | 82 | 351 | 0.0 | 0.0 | 0.00 | 0.00 | 0.00 | 81 | 1012.5 |
| 20260905034524 | 83 | 351 | 0.0 | 0.0 | 0.00 | 0.00 | 0.00 | 79 | 1012.6 |
| 20260905033021 | 83 | 351 | 0.0 | 0.0 | 0.00 | 0.00 | 0.00 | 77 | 1012.5 |
| 20260905031511 | 83 | 351 | 0.0 | 0.0 | 0.00 | 0.00 | 0.00 | 76 | 1012.6 |
| 20260905030011 | 84 | 351 | 0.0 | 0.0 | 0.00 | 0.00 | 0.00 | 75 | 1012.7 |
| 20260905024511 | 85 | 351 | 0.0 | 0.0 | 0.00 | 0.00 | 0.00 | 74 | 1012.7 |
| 20260905023010 | 85 | 351 | 0.0 | 0.0 | 0.00 | 0.00 | 0.00 | 73 | 1012.5 |
| 20260905021520 | 86 | 351 | 0.0 | 0.0 | 0.00 | 0.00 | 0.00 | 72 | 1012.5 |
| 20260905020013 | 86 | 351 | 0.0 | 0.0 | 0.00 | 0.00 | 0.00 | 72 | 1012.4 |
| 20260905014508 | 87 | 351 | 0.0 | 0.0 | 0.00 | 0.00 | 0.00 | 70 | 1012.3 |
| 20260905013012 | 87 | 351 | 0.0 | 0.0 | 0.00 | 0.00 | 0.00 | 69 | 1012.1 |
| 20260905011507 | 88 | 351 | 0.0 | 0.0 | 0.00 | 0.00 | 0.00 | 67 | 1012.0 |
| 20260905010006 | 88 | 351 | 0.0 | 0.0 | 0.00 | 0.00 | 0.00 | 67 | 1011.8 |
| 20260905004506 | 89 | 351 | 0.0 | 0.0 | 0.00 | 0.00 | 0.00 | 66 | 1011.7 |
| 20260905003009 | 89 | 351 | 0.0 | 0.0 | 0.00 | 0.00 | 0.00 | 64 | 1011.7 |
| 20260905001506 | 90 | 351 | 0.0 | 0.0 | 0.00 | 0.00 | 0.00 | 63 | 1011.5 |
| 20260905000005 | 91 | 351 | 0.0 | 0.0 | 0.00 | 0.00 | 0.00 | 62 | 1011.5 |
| 20260904234505 | 92 | 351 | 0.0 | 0.0 | 0.00 | 0.00 | 0.00 | 59 | 1011.5 |
| 20260904233004 | 93 | 351 | 0.0 | 0.0 | 0.00 | 0.00 | 0.00 | 58 | 1011.7 |
| 20260904231502 | 94 | 351 | 0.0 | 0.0 | 0.00 | 0.00 | 0.00 | 56 | 1011.7 |
| 20260904230001 | 95 | 351 | 0.0 | 0.0 | 0.00 | 0.00 | 0.00 | 54 | 1011.8 |
| 20260904224559 | 96 | 351 | 0.0 | 0.9 | 0.00 | 0.00 | 0.00 | 52 | 1011.8 |
| 20260904223100 | 96 | 351 | 0.0 | 0.0 | 0.00 | 0.00 | 0.00 | 52 | 1011.9 |
| 20260904221604 | 96 | 351 | 0.0 | 1.7 | 0.00 | 0.00 | 0.00 | 51 | 1011.9 |
| 20260904220109 | 96 | 351 | 0.0 | 0.0 | 0.00 | 0.00 | 0.00 | 51 | 1011.8 |
| 20260904214557 | 97 | 351 | 0.0 | 2.6 | 0.00 | 0.00 | 0.00 | 51 | 1011.9 |
| 20260904213057 | 97 | 351 | 0.0 | 2.6 | 0.00 | 0.00 | 0.00 | 49 | 1012.0 |
| 20260904211557 | 97 | 356 | 0.0 | 3.5 | 0.00 | 0.00 | 0.00 | 49 | 1012.0 |
| 20260904210100 | 98 | 340 | 0.0 | 3.5 | 0.00 | 0.00 | 0.00 | 48 | 1012.1 |